Dewpoint
43 43 44 44 43 43 43 43 43 42 41 41 41 41 41 41 40 39 39 38 38 38 38 39 40 41 44 45 45 45 45 44 43 42 41 40 40 39 38 38 37 37 37 37 37 36 36 36 36 36 36 36 36 36 36 37 37 38 38 39 40 40 41 41 42 42 43 43 43 43 42 42 41 41 41 41 41 40 40 40 40 40 40 40 40 40
42 43 43 43 43 42 42 43 43 42 41 41 41 41 41 40 39 38 37 37 36 36 36 37 39 41 42 45 45 45 44 43 42 41 41 40 39 38 37 37 37 36 36 36 36 36 36 36 36 36 36 36 36 36 36 36 36 36 36 37 37 38 39 39 40 40 41 41 41 41 41 41 40 40 40 39 39 39 39 39 39 39 39 39 39 39
41 41 42 43 43 42 41 42 42 42 42 41 41 41 41 40 39 37 36 36 35 34 34 36 37 39 40 43 44 45 44 43 42 41 40 39 38 37 36 36 36 36 36 35 35 35 35 35 35 35 36 36 35 35 35 35 34 34 35 35 35 36 36 36 37 37 38 38 39 39 39 39 38 38 38 38 38 38 38 38 37 37 37 37 37 38
41 41 41 41 41 41 41 41 41 41 41 40 40 40 40 39 37 36 34 34 34 33 33 34 36 37 39 41 43 44 44 43 41 41 39 38 37 36 36 35 35 35 35 34 34 34 34 34 34 35 35 35 35 34 34 33 33 33 33 33 33 34 34 34 35 35 35 36 36 36 36 37 37 37 37 37 37 37 36 36 36 36 36 36 36 37
41 41 41 41 40 39 39 39 39 39 39 38 38 38 38 37 36 34 33 33 33 33 33 33 34 36 37 39 41 44 44 42 41 40 39 37 36 36 35 34 34 34 34 34 33 33 33 33 33 34 34 34 34 33 33 33 33 33 32 32 32 32 32 33 33 33 33 34 34 35 35 36 36 36 36 36 36 36 36 36 35 35 35 36 36 36
41 41 41 41 40 38 37 38 38 38 38 37 37 36 36 35 34 34 33 32 32 32 31 32 32 33 35 38 41 43 43 41 40 39 38 36 36 35 33 33 33 33 33 33 33 32 32 32 33 33 33 33 33 33 33 33 33 32 32 32 32 32 32 32 32 32 32 33 33 34 34 35 35 35 35 35 35 35 35 35 35 35 35 35 35 36
40 41 41 39 38 37 36 37 38 38 38 37 36 36 35 34 33 32 31 30 30 30 30 31 31 32 33 36 39 41 41 40 39 38 37 36 35 34 33 32 32 32 32 32 32 32 32 32 32 33 33 33 33 32 32 32 33 33 33 32 32 32 32 32 32 32 32 32 33 33 34 34 34 35 35 35 35 35 35 35 35 34 34 35 35 35
40 40 39 37 36 36 36 36 37 38 38 37 36 36 36 34 33 31 29 28 28 29 30 31 31 31 31 32 35 36 36 36 36 36 36 35 35 34 32 32 32 32 32 32 32 31 31 31 32 32 32 32 32 32 32 32 32 33 33 33 33 32 32 32 32 32 32 32 32 32 33 33 34 34 34 34 34 34 34 34 34 34 34 34 34 35
39 39 38 37 36 36 36 36 35 35 36 37 38 37 36 35 33 32 31 29 28 27 29 30 31 30 29 30 31 33 33 32 32 32 33 33 33 33 33 32 32 32 32 31 31 31 30 30 31 32 32 32 32 32 32 32 32 32 32 33 33 33 33 32 32 32 32 32 32 32 32 32 33 33 33 33 33 33 33 33 33 34 34 34 34 34
39 38 38 38 37 37 37 36 34 32 32 35 36 36 36 35 34 34 33 31 29 27 27 28 29 29 28 28 29 30 31 32 32 33 33 32 32 33 32 32 32 32 32 32 31 31 30 30 31 31 32 32 32 31 31 31 31 32 32 32 33 33 33 33 33 33 32 32 32 32 32 32 32 32 32 32 32 32 32 32 33 33 33 34 34 35
39 39 38 36 35 34 35 34 32 31 31 33 34 35 35 34 35 36 35 32 30 27 26 25 25 25 26 26 26 26 25 25 26 27 29 29 30 31 31 32 32 32 33 32 32 32 31 31 31 31 32 31 31 30 30 30 30 31 32 32 32 32 32 33 33 33 33 33 33 33 33 32 32 32 32 32 32 32 32 32 32 33 33 34 34 35
39 38 38 36 34 32 31 31 31 32 34 35 36 35 34 31 32 35 36 34 31 28 25 24 23 22 22 22 23 23 20 20 20 20 21 23 23 24 25 26 27 29 31 32 32 32 32 32 32 32 32 31 31 30 29 29 30 31 32 32 32 32 32 32 33 33 33 33 33 33 33 33 33 32 32 32 32 32 32 32 33 33 33 34 34 35
38 38 37 36 35 34 32 32 32 34 35 36 36 36 36 30 29 31 35 34 31 27 23 23 23 22 21 20 20 20 19 20 20 20 20 19 19 19 19 20 21 22 23 26 27 29 32 32 32 31 32 31 31 30 30 30 30 31 32 32 32 32 32 32 32 32 32 32 33 33 33 33 33 33 33 32 33 33 33 33 33 33 33 34 34 35
37 37 37 36 36 36 34 34 34 35 36 37 36 36 33 29 28 29 32 31 27 23 22 23 23 23 22 21 20 20 18 20 21 21 20 19 18 18 18 18 19 19 20 22 23 26 28 27 27 28 31 31 32 32 31 31 31 31 32 32 32 32 32 32 32 32 32 32 32 32 33 33 33 33 33 33 33 33 33 33 33 33 33 33 34 35
37 37 37 37 36 36 36 35 36 36 36 34 32 29 27 28 29 31 32 30 26 23 23 24 24 23 23 22 21 19 18 20 21 21 20 19 18 18 17 18 19 20 20 21 22 23 25 24 23 25 28 31 32 32 31 31 31 31 31 31 32 32 32 32 32 32 32 32 32 32 32 33 33 33 33 33 33 32 32 32 32 32 33 33 33 34
38 38 37 37 37 36 36 36 36 36 35 30 27 27 29 30 31 32 33 30 27 24 25 25 25 24 25 23 22 20 18 20 21 21 20 20 19 18 17 18 20 21 21 21 21 21 22 21 22 24 27 30 32 31 31 31 30 31 31 31 32 32 32 32 32 32 32 32 32 32 32 33 33 33 33 33 32 32 32 32 32 32 32 32 33 33
38 38 38 38 37 37 35 36 36 35 31 27 27 28 31 32 32 33 32 30 27 27 27 27 26 25 24 24 23 22 19 19 20 20 20 20 19 18 18 18 20 21 22 22 21 21 20 20 21 23 27 30 31 31 30 30 30 30 31 32 32 32 32 32 32 32 32 32 32 32 33 33 33 33 33 33 32 32 32 32 32 32 32 32 32 33
38 39 39 38 38 36 34 34 31 28 28 27 27 27 27 29 30 31 31 30 29 28 28 28 27 25 24 23 23 21 18 19 20 21 21 20 19 19 18 18 20 21 21 22 21 21 20 19 21 24 28 30 31 31 31 31 31 31 31 32 32 32 32 32 32 32 32 32 32 32 33 33 33 33 33 32 32 32 32 32 32 32 32 32 32 32
38 38 38 38 37 35 34 33 31 29 29 29 28 27 27 26 27 28 29 29 30 30 29 27 25 23 22 22 21 19 17 18 20 22 21 21 20 19 17 19 22 23 21 22 21 21 20 20 23 26 30 30 31 31 32 31 31 31 32 32 32 31 31 31 32 32 32 32 32 32 32 32 32 32 32 32 32 32 32 32 32 32 32 32 32 32
36 36 36 36 35 34 33 33 32 32 32 31 31 30 28 27 27 28 29 28 28 27 26 27 24 21 18 19 19 18 15 18 21 22 21 20 19 18 17 18 20 21 21 21 21 20 19 20 21 24 29 30 31 32 32 31 31 31 31 31 31 31 31 31 31 32 32 32 32 32 32 32 32 32 32 32 32 32 32 32 32 32 33 33 33 33
36 35 35 35 34 34 34 34 33 33 33 33 32 31 29 28 28 28 27 27 26 24 24 26 24 20 17 18 18 18 15 18 20 21 20 19 19 18 17 16 17 18 21 21 21 20 19 20 20 23 27 30 32 32 32 31 31 31 31 31 31 31 31 31 31 31 31 32 32 32 32 32 32 32 32 32 32 32 32 32 32 32 33 33 34 35
36 35 34 33 34 35 36 34 34 34 34 34 32 31 30 29 28 28 27 26 26 26 27 24 21 18 16 17 17 16 15 17 19 21 20 20 20 19 17 16 17 18 20 20 20 19 19 20 21 23 27 31 32 33 32 31 31 31 31 31 31 31 31 31 31 31 31 31 31 31 31 32 32 32 32 32 32 32 32 32 32 32 33 33 34 34
36 36 33 32 32 34 35 35 34 34 35 34 33 32 32 31 30 29 27 27 26 25 22 19 18 18 18 18 17 16 16 17 18 20 22 22 21 19 17 16 17 18 20 19 19 19 20 20 21 23 27 31 32 33 32 31 31 31 31 31 31 31 31 30 30 30 31 31 31 31 31 31 31 31 31 31 31 31 31 32 32 32 32 32 32 33
34 34 32 31 31 32 33 33 33 33 33 31 30 29 30 29 27 26 26 25 23 22 20 20 20 20 20 21 19 18 18 17 18 19 23 23 21 19 16 16 18 20 20 19 19 18 19 20 21 23 25 29 31 32 32 31 31 31 31 31 31 30 30 30 30 30 30 31 31 31 31 31 31 31 31 31 31 31 31 31 32 32 32 32 32 32
30 31 30 30 30 31 32 32 32 31 30 28 28 27 27 26 25 23 22 22 21 21 21 22 22 21 19 22 21 19 18 18 17 18 22 22 21 18 15 15 17 18 20 19 19 19 19 21 21 22 23 26 28 31 31 31 31 31 31 31 31 30 30 30 30 30 30 30 30 30 30 30 30 30 30 30 30 31 31 31 31 31 31 32 32 32
30 30 30 31 32 33 33 33 33 32 31 29 28 27 26 25 24 23 23 22 22 23 24 24 23 21 17 17 18 19 19 18 18 18 20 21 20 18 16 14 14 16 19 19 20 21 22 22 22 22 22 23 27 30 31 31 31 31 30 30 30 30 30 30 30 30 30 30 30 30 30 30 30 30 30 30 30 31 31 31 31 31 31 32 32 32
33 34 34 34 35 35 35 34 34 33 32 31 29 28 26 25 25 24 23 22 23 24 25 24 23 21 18 19 19 18 18 20 18 17 18 20 20 19 17 15 14 14 17 19 21 23 25 24 23 22 22 22 24 28 31 31 31 31 31 31 31 31 30 30 30 30 30 30 30 30 30 30 30 30 30 30 30 31 31 31 31 31 32 32 32 32
36 36 36 35 35 35 35 35 34 34 33 33 32 31 28 27 26 25 24 22 23 23 24 23 23 22 21 21 19 18 16 19 20 18 17 20 21 20 17 14 14 14 16 19 22 23 26 24 23 21 20 22 23 25 28 29 30 31 31 31 31 31 30 30 30 30 30 30 30 30 30 30 30 30 30 30 30 30 30 31 31 31 32 32 32 31
36 36 36 36 36 35 35 35 34 34 34 33 32 31 29 27 26 26 24 23 23 23 24 23 22 21 20 18 17 16 16 18 20 20 18 20 20 18 15 14 14 14 16 19 21 23 23 23 22 21 19 22 23 23 23 26 27 28 29 31 31 31 30 30 30 30 30 30 30 29 29 29 29 29 30 30 30 30 30 30 31 31 32 31 30 30
33 33 33 34 34 34 34 34 34 34 34 33 32 30 28 26 25 24 23 23 23 23 23 23 21 18 17 16 17 17 18 19 20 20 20 21 20 18 15 14 14 14 16 19 20 20 21 22 22 22 20 22 22 21 21 23 23 24 25 28 30 30 30 30 30 30 30 30 29 29 29 29 29 29 29 30 30 30 30 30 30 30 31 30 29 29
30 29 29 29 29 30 32 32 32 32 32 32 30 28 26 24 23 23 23 23 23 23 23 22 20 18 18 18 18 18 18 18 20 21 21 22 20 18 16 16 15 14 15 18 19 19 19 21 22 22 21 20 20 20 21 22 22 21 22 25 27 28 29 29 29 29 30 30 30 29 29 29 29 29 29 29 29 30 30 30 30 30 31 29 28 28
27 27 26 26 26 26 27 27 27 27 27 27 27 27 26 24 23 23 23 22 22 22 21 21 20 19 19 18 18 18 18 18 19 21 22 21 18 16 15 17 16 14 14 15 18 19 19 21 21 21 19 19 19 19 21 22 22 20 21 23 24 25 27 27 28 28 29 29 30 30 30 30 29 29 29 29 29 30 30 30 30 30 31 29 28 27
25 25 24 25 24 23 23 23 23 23 24 23 24 25 25 25 25 23 22 22 21 21 20 20 19 18 18 18 17 17 18 18 19 22 23 20 18 16 14 15 16 15 15 14 15 17 18 18 18 18 18 19 19 19 19 22 22 21 20 21 22 23 25 25 26 26 27 27 28 29 29 30 30 30 30 30 30 30 30 30 30 30 31 30 29 28
26 25 25 24 23 23 22 22 22 22 22 22 23 23 23 24 25 24 23 22 21 21 21 20 19 18 18 18 18 18 18 17 20 23 24 20 18 16 14 15 16 16 16 15 15 15 16 14 15 16 18 19 19 19 19 20 20 20 18 19 20 21 22 23 23 24 24 25 25 25 26 27 28 29 30 30 30 30 30 30 30 30 30 31 30 29
26 25 24 24 23 23 23 23 22 22 21 21 21 22 22 22 23 23 23 22 21 20 20 20 20 20 19 19 19 19 18 18 21 24 25 20 18 17 16 16 17 17 18 17 17 17 17 15 16 18 18 19 19 20 19 18 18 18 18 18 19 20 20 20 21 22 22 23 23 23 23 24 25 27 28 29 29 29 30 30 30 30 30 30 30 30
25 25 24 23 23 24 23 23 23 22 21 19 18 18 19 19 20 20 21 21 21 21 21 20 20 20 20 20 20 19 19 18 21 24 26 22 19 18 18 18 17 18 19 18 18 18 18 18 18 18 20 19 19 19 19 19 19 18 18 19 20 20 19 19 19 18 19 22 23 23 23 23 24 25 27 28 28 28 29 29 29 29 30 30 30 30
25 24 23 21 22 23 23 22 21 21 19 18 17 17 18 17 18 18 18 18 19 21 22 22 22 22 22 20 20 19 19 19 21 24 26 23 20 20 20 18 18 19 18 18 18 18 18 18 18 18 18 18 18 18 18 19 19 19 19 20 20 19 19 18 18 18 18 22 23 24 24 24 24 24 26 27 27 27 27 28 28 29 29 29 30 30
25 24 22 18 18 19 21 21 20 20 19 17 16 16 16 15 15 16 16 16 17 18 19 20 21 21 23 22 20 18 18 19 22 25 26 23 21 19 20 19 19 19 18 19 19 18 18 19 18 18 17 16 17 18 19 19 19 19 19 20 20 20 19 18 18 18 18 21 23 24 25 24 23 23 23 23 24 24 25 25 26 27 27 27 28 28
25 24 22 19 18 18 19 19 19 18 18 17 16 15 14 15 15 15 15 15 16 16 17 18 18 18 19 21 22 21 20 21 23 25 24 22 21 20 20 20 20 19 18 18 18 19 19 19 18 18 17 16 17 17 17 16 17 18 18 20 21 21 20 19 19 19 20 20 23 24 24 22 20 20 22 22 22 23 23 23 24 26 26 25 25 26
24 24 23 22 19 16 15 18 18 17 16 17 18 18 17 17 16 16 17 17 16 16 15 16 17 18 19 20 20 20 20 21 23 23 20 18 19 20 21 20 19 18 17 16 17 18 20 19 18 18 19 18 17 17 17 16 16 18 21 21 21 22 23 22 20 18 18 18 19 21 21 20 20 21 22 22 22 22 22 22 22 23 24 23 23 23
23 23 22 22 20 18 18 18 16 16 16 17 17 17 17 16 16 16 17 18 17 17 17 18 18 18 18 16 14 14 15 18 20 20 17 14 15 18 21 20 20 18 18 16 16 17 20 19 19 18 18 17 18 18 19 18 19 20 22 21 20 21 22 23 22 20 18 17 17 18 21 22 23 24 23 23 22 22 22 22 22 22 23 23 23 23
24 23 21 19 18 17 15 15 15 16 16 16 16 16 16 16 16 17 17 18 18 17 16 18 20 21 21 20 17 14 13 14 16 17 16 13 14 16 20 20 20 19 18 18 17 18 19 20 20 19 18 17 17 18 18 18 19 21 22 21 21 21 21 22 20 17 17 17 16 17 21 22 23 23 22 22 22 22 22 22 23 23 24 23 22 22
25 23 18 17 16 15 16 17 18 17 16 16 15 15 15 15 17 18 19 18 18 19 19 19 20 22 22 21 20 18 16 14 13 14 16 14 14 15 18 19 20 20 19 18 18 18 18 20 20 19 18 18 18 18 18 18 19 19 21 21 21 20 20 21 19 16 16 18 18 18 19 21 22 21 21 22 22 21 21 22 23 25 26 25 23 22
23 19 15 14 14 15 17 17 17 17 17 17 16 15 13 14 17 19 18 18 18 18 17 16 17 19 20 20 20 20 18 16 14 14 14 16 15 14 16 17 18 19 20 20 19 18 17 18 19 19 18 18 18 18 18 18 18 19 20 21 21 20 20 20 20 19 19 19 20 20 20 20 20 20 20 20 21 21 21 20 21 22 24 25 24 23
18 16 15 15 16 16 17 16 16 16 16 16 15 14 14 15 17 18 17 17 17 17 15 16 18 18 19 18 18 18 17 17 17 16 16 18 19 19 18 17 17 18 19 20 20 20 19 18 19 19 19 19 19 19 19 19 19 19 20 21 21 21 21 21 21 21 21 21 21 21 20 20 19 19 20 20 21 21 20 21 21 21 22 23 23 23
17 17 17 16 17 18 18 16 15 15 15 15 14 14 13 14 15 16 17 16 16 15 14 16 18 19 19 18 17 16 17 18 17 17 16 17 19 20 20 19 18 18 18 19 20 20 20 19 19 19 19 19 19 19 20 20 20 20 20 21 21 21 21 21 21 21 21 21 21 21 20 19 19 19 20 21 21 21 21 21 21 22 22 22 22 22
17 17 16 16 16 16 15 15 15 15 16 15 14 13 12 13 14 15 15 14 14 14 15 17 18 19 19 17 16 16 18 18 18 17 16 16 17 19 19 19 19 19 19 19 19 20 20 20 20 20 20 19 19 19 20 20 20 20 20 21 21 21 20 21 21 21 21 21 21 21 19 19 19 20 20 21 21 21 21 21 21 22 22 22 22 22
18 18 17 16 15 15 14 14 15 15 16 15 14 12 12 12 14 15 13 13 15 17 18 18 18 18 18 15 14 15 18 18 18 17 17 16 16 17 18 19 19 19 19 20 20 21 21 22 22 21 21 20 19 19 19 20 20 21 21 21 21 20 20 20 21 21 21 21 22 22 21 20 20 20 20 21 21 21 21 22 22 22 22 22 22 23
18 18 17 16 16 15 14 14 14 15 16 15 14 12 11 15 18 18 13 13 15 17 18 18 18 18 18 15 14 15 17 17 17 15 15 15 15 16 18 19 19 19 20 20 21 21 22 23 23 23 22 21 21 20 19 20 20 21 21 21 21 20 20 20 21 21 21 21 22 22 22 21 20 21 21 20 21 21 21 22 22 22 23 23 23 23
18 17 17 16 16 15 14 14 15 16 16 15 14 13 12 14 15 15 13 13 14 16 17 18 18 18 17 16 15 15 16 16 16 15 15 14 15 16 19 20 20 20 20 20 20 21 21 22 23 23 24 24 23 22 20 20 20 21 21 21 21 20 20 20 21 21 21 21 21 22 21 21 21 21 21 20 20 21 21 22 22 23 23 23 23 23
17 16 16 16 16 15 15 15 15 16 16 16 15 14 13 13 14 14 13 13 14 15 16 16 17 17 16 16 16 16 16 16 16 16 17 15 15 17 19 20 20 20 19 19 19 19 19 19 20 21 23 25 26 25 22 21 21 21 20 20 21 21 21 21 21 21 22 22 22 21 21 20 20 20 20 20 20 20 21 21 22 23 23 22 22 21